Regional Weather Roundup
Issued by NWS

Home | Current Version | Previous Version | Text Only | Print | Product List | Glossary On
Versions: 1 2 3 4 5 6 7 8 9 10 11 12 13 14 15 16 17 18 19 20 21 22 23 24 25 26 27 28 29 30 31 32 33 34 35 36 37 38 39 40 41 42 43 44 45 46 47 48 49 50
000
ASUS42 KKEY 041310
RWRKEY

FLORIDA REGIONAL WEATHER ROUNDUP FOR THE FLORIDA KEYS
NATIONAL WEATHER SERVICE KEY WEST FLORIDA
900 AM EDT SAT JUL 04 2015

...SOUTH FLORIDA AND THE KEYS...

CITY           SKY/WX    TMP DP  RH WIND       PRES   REMARKS
FORT MYERS     SUNNY     79  75  87 E7        30.11R
SW REGIONAL AP SUNNY     78  74  87 NE6       30.12R
NAPLES         SUNNY     80  73  79 E7        30.11R
MIAMI          MOSUNNY   85  74  69 SE10      30.11R HX  92
WEST KENDALL   MOSUNNY   84  75  74 SE8       30.11R HX  92
HOMESTEAD      SUNNY     87  74  65 E8        30.11R HX  94
MARATHON       MOSUNNY   87  78  74 SE6       30.09R HX 100
BOCA CHICA NAS PTSUNNY   86  75  69 SE10      30.09R HX  95
KEY WEST INTL  PTSUNNY   86  77  74 E9        30.09R HX  97

...INTERNATIONAL WEATHER...

CITY           SKY/WX    TMP DP  RH WIND       PRES   REMARKS
NASSAU BAHAMAS MOSUNNY   82  73  74 E9        30.14R
CANCUN MEXICO  PTSUNNY   82  79  89 E8        30.02R HX  93
COZUMEL MEXICO CLOUDY    77  77 100 CALM      30.01R

ADJACENT COASTAL WATERS...

STATION/POSITION TIME  SKY/WX   TEMP    WIND        PRES    WAVE
                                AIR SEA DIR/SP/G            HT/PER
                 (UTC)          (F)     (DEG/KT/KT) (MB)    (FT/S)
PULASKI SHOAL LI 1200            85     140/ 11/ 14 1018.2R
SAND KEY         1250            84     130/ 11/ 13 1018.6R
SOMBRERO KEY     1200            84     120/ 13/ 14 1019.2R
LONG KEY         1200            84 86  130/  9/ 10 1019.4R
MOLASSES REEF    1200            84 85  130/ 12/ 13 1018.7R
FOWEY ROCKS      NOT AVBL

$$


USA.gov is the U.S. government's official web portal to all federal, state and local government web resources and services.